Theta_e
326 326 326 329 331 328 332 334 336 334 336 337 342 347 350 351 352 352 348 348 347 346 345 344 345 347 349 349 347 341 338 338 340 339 338 339 339 338 336 338 339 340 338 337
338 336 338 338 336 334 332 333 334 337 340 341 345 346 349 353 352 350 348 347 345 344 342 342 344 344 343 344 341 338 336 337 336 335 336 335 338 336 335 333 332 330 330 330
338 336 338 340 339 339 339 340 338 342 342 348 349 347 351 352 351 352 350 348 344 343 344 342 341 342 342 341 341 341 340 341 336 337 336 335 334 337 334 331 329 328 326 326
336 340 340 336 335 337 339 341 343 347 347 347 347 346 347 351 352 351 350 349 345 343 342 340 339 339 341 341 342 342 341 337 338 338 336 333 332 333 332 328 326 325 324 325
341 337 335 337 344 344 344 342 346 348 347 345 345 346 350 350 349 350 348 346 342 339 340 339 339 339 338 335 333 332 331 329 329 331 331 332 331 331 329 326 323 324 325 325
340 337 335 334 337 338 341 348 345 347 349 348 348 352 354 351 348 347 344 342 338 336 336 336 336 336 333 332 331 330 330 329 326 326 326 325 324 324 324 324 324 324 323 323
331 333 331 334 336 338 345 336 341 345 347 348 350 351 352 348 347 343 339 337 336 337 336 334 333 331 330 330 330 329 328 328 327 326 326 326 324 324 325 326 324 323 324 324
336 338 332 334 337 343 341 346 349 350 348 348 350 350 348 345 343 340 336 335 334 333 332 330 330 330 330 329 328 328 329 328 325 325 324 323 321 322 322 322 322 323 323 323
338 340 336 334 336 336 338 344 350 348 347 346 350 349 345 343 342 339 336 333 331 330 329 329 329 329 329 327 327 327 326 324 322 321 320 318 318 319 321 321 322 322 322 322
335 333 334 334 334 334 341 348 347 346 346 345 348 346 345 343 341 337 332 330 329 329 329 328 327 327 326 325 325 324 322 321 319 319 319 319 318 317 318 319 320 321 321 321
332 331 331 332 334 334 343 347 345 342 344 346 343 344 342 340 337 333 331 330 330 329 327 325 324 323 322 321 321 319 319 318 318 317 318 317 317 316 318 318 317 319 320 320
329 329 328 332 331 331 338 347 345 343 343 340 340 340 338 337 334 333 331 329 328 326 325 323 321 319 318 318 318 317 316 315 315 316 317 317 316 316 315 313 314 314 315 317
326 324 323 325 329 332 338 345 341 340 339 338 335 334 333 333 331 328 328 327 326 325 322 318 318 317 317 317 317 317 316 316 315 315 316 316 316 316 315 315 314 315 316 317
325 326 331 332 333 332 338 337 334 334 332 331 331 330 330 328 327 327 326 324 323 319 317 318 317 317 317 317 317 317 316 314 317 317 316 316 315 315 316 316 316 317 317 318
325 325 325 325 326 331 333 333 335 333 331 330 329 328 328 328 327 325 323 320 318 317 318 319 319 318 315 315 317 317 316 316 317 317 317 316 316 315 315 315 316 316 316 316
325 327 325 326 328 330 332 332 334 332 331 329 328 327 326 326 324 321 320 320 320 320 320 320 320 320 319 318 318 318 318 316 315 317 317 317 317 316 316 315 316 316 316 316
328 329 327 327 326 327 330 331 332 330 328 327 327 325 324 323 321 320 320 319 319 319 319 319 320 319 317 317 319 319 319 318 317 317 318 317 317 317 317 317 316 316 316 316
325 326 325 324 325 327 327 327 327 327 327 326 324 323 322 321 321 321 320 320 320 320 319 319 317 317 318 319 319 319 319 318 318 318 318 317 317 317 317 317 317 316 316 315
323 325 323 323 324 325 325 324 324 323 323 323 322 322 322 322 322 322 321 321 321 319 318 315 315 316 318 317 316 318 319 318 318 318 318 317 316 316 317 316 316 316 315 313
324 323 323 323 323 323 323 322 322 321 321 322 322 321 320 320 320 321 320 320 319 318 316 317 316 318 316 315 314 316 317 318 318 318 318 316 316 316 316 315 315 314 312 311
324 323 322 322 323 322 322 321 321 321 320 321 321 322 323 321 320 320 319 319 318 316 316 316 316 316 316 314 315 315 315 316 316 317 315 314 315 316 314 316 314 313 311 311
320 321 320 320 320 320 321 320 321 321 321 322 322 321 321 320 319 319 319 318 318 316 317 317 316 314 313 314 315 315 315 315 315 315 315 314 316 315 315 315 313 312 311 311
322 319 319 319 320 320 321 322 322 321 321 320 320 320 320 319 318 317 318 319 317 317 316 316 313 313 314 315 316 316 315 315 315 315 314 316 317 315 315 314 313 312 312 311
320 319 318 317 319 320 321 319 320 319 318 317 318 316 317 318 318 317 317 315 315 316 316 314 312 312 314 316 316 316 315 313 312 313 316 316 315 313 314 314 313 313 312 312
319 318 318 318 318 320 321 320 319 317 317 317 316 318 316 317 318 318 316 316 315 315 315 313 312 313 315 316 315 316 316 316 315 315 316 315 314 314 314 312 310 311 312 312
318 317 317 318 316 317 319 319 319 318 317 318 317 319 316 314 314 313 314 314 315 316 315 315 315 314 315 316 316 316 316 317 317 317 316 317 314 311 310 311 310 311 312 313
317 317 318 319 317 316 318 319 319 320 318 318 319 318 316 315 315 314 314 315 316 316 316 316 315 315 315 315 316 316 317 318 317 317 316 316 315 313 312 311 311 311 311 311
Wind_Speed
9 7 5 8 9 14 13 10 8 9 7 13 3 8 6 7 8 9 7 7 8 9 7 8 10 15 18 23 29 35 37 30 26 23 19 14 7 8 11 13 8 5 3 1
3 4 0 2 7 11 12 7 12 9 12 2 4 4 7 8 8 8 8 7 6 6 9 9 8 13 23 26 32 39 39 28 26 21 11 5 3 5 4 7 9 2 4 3
10 4 4 6 8 12 7 7 8 9 7 5 3 7 11 10 9 9 8 8 8 8 9 11 10 10 10 26 20 30 33 22 11 2 8 11 14 10 10 7 7 6 1 5
4 2 10 6 2 4 14 8 11 10 6 1 2 7 11 12 12 12 12 12 11 9 13 13 12 14 15 14 8 13 11 17 14 13 4 9 8 6 2 1 5 2 2 5
4 9 5 4 4 5 8 10 12 12 5 5 9 11 8 11 13 13 13 12 13 13 13 13 14 14 16 13 12 12 14 14 18 28 7 5 4 2 3 6 4 5 7 7
3 6 12 5 3 2 1 11 6 11 5 8 11 6 5 14 14 14 15 13 15 17 16 14 13 16 16 15 15 12 14 13 18 15 13 9 7 4 2 3 4 4 6 7
9 8 8 3 0 3 8 10 4 5 3 7 4 3 12 14 15 18 19 19 18 18 18 17 16 18 18 16 14 13 15 15 13 12 8 8 7 5 3 1 2 2 5 6
2 4 8 2 2 5 5 6 6 5 1 9 10 13 16 16 17 17 19 20 21 17 15 14 16 17 15 14 12 13 12 11 10 8 7 6 5 3 2 2 3 4 5 7
5 2 2 3 6 6 7 7 5 4 5 11 14 16 17 17 17 17 21 17 16 17 16 13 12 11 14 9 10 12 10 7 6 7 8 7 6 6 5 5 4 5 6 7
3 1 5 4 5 4 3 6 7 3 7 10 12 15 17 15 14 13 17 18 18 19 17 15 12 12 13 11 10 10 9 6 5 5 5 5 6 6 5 5 6 6 7 8
5 6 10 1 5 7 5 3 4 5 6 10 12 11 13 13 13 17 19 17 15 15 17 16 13 12 8 7 7 9 9 6 5 3 1 1 3 6 6 6 6 8 8 9
4 4 5 9 9 12 8 2 3 3 7 9 11 11 12 10 13 15 17 17 16 15 15 13 10 10 9 9 9 10 9 7 6 4 2 2 4 6 7 8 9 9 10 11
5 13 15 16 13 7 7 2 4 6 6 10 11 14 13 12 14 16 15 15 14 14 12 11 10 9 7 7 8 9 8 5 4 4 3 2 3 5 7 6 9 9 8 7
5 11 8 3 6 6 3 5 8 10 9 11 14 16 17 18 17 16 15 15 14 13 13 11 10 8 7 7 6 5 4 3 1 1 2 3 5 6 7 7 9 8 8 10
13 11 12 13 6 1 4 7 8 8 10 11 14 17 19 18 16 16 14 12 11 10 9 7 6 6 6 5 4 4 3 2 3 4 4 6 6 6 6 6 6 8 9 7
17 14 9 7 5 4 7 8 9 9 9 11 14 16 16 16 16 15 14 12 9 7 5 5 5 4 5 5 5 5 5 6 5 6 7 7 7 8 7 7 8 8 10 11
12 12 13 8 3 2 6 5 8 8 10 13 15 15 14 14 13 12 10 6 4 3 1 2 3 3 5 6 8 8 8 8 10 9 9 10 10 10 10 11 13 13 14 15
7 9 10 9 6 6 3 2 2 10 12 16 15 14 14 14 12 10 7 4 1 3 4 4 5 6 7 8 9 10 11 11 11 12 11 11 12 13 13 14 15 15 15 16
10 6 6 3 4 5 6 11 6 8 9 12 14 12 9 8 9 8 5 1 3 6 6 6 7 9 9 10 11 11 13 14 14 14 12 12 12 13 12 13 14 15 15 17
8 9 7 7 5 10 9 13 8 11 9 12 14 13 7 5 4 3 1 5 7 7 8 9 8 7 9 13 16 14 16 16 16 16 13 11 14 13 13 14 12 12 13 14
5 6 8 9 8 4 8 15 11 14 16 11 11 9 8 7 6 3 3 6 5 5 7 7 8 8 11 15 17 16 16 15 14 11 12 10 14 13 11 12 10 11 12 15
5 6 7 8 9 3 8 16 14 15 15 11 7 7 7 6 5 6 8 10 6 8 7 5 6 9 14 15 15 16 17 16 15 13 11 8 11 10 10 8 10 10 12 15
5 9 11 8 1 1 5 9 9 10 11 11 10 9 8 6 6 6 6 3 5 7 6 5 8 13 16 13 14 15 15 12 11 9 8 8 8 10 6 7 9 10 12 13
7 9 8 6 3 2 4 3 7 11 13 11 8 7 5 5 5 7 8 6 7 5 5 6 10 14 13 11 13 13 12 10 9 7 7 11 8 6 5 7 9 11 11 12
10 11 7 6 4 2 6 9 11 11 6 5 3 3 1 4 4 2 5 7 8 5 7 8 10 12 9 9 10 11 11 8 7 8 9 8 5 5 6 9 14 14 12 11
7 4 4 7 4 1 4 5 6 4 5 6 6 3 3 2 4 7 6 7 7 8 9 9 9 10 9 10 9 11 11 9 9 10 11 8 8 8 9 10 14 12 11 10
6 5 6 5 3 2 4 4 3 1 2 4 5 5 3 4 6 8 8 7 7 7 7 8 9 10 10 11 11 10 11 11 10 10 9 8 10 11 13 12 12 13 13 11
Wind_Direction
269 277 245 261 214 187 201 216 230 292 233 270 12 273 213 152 124 114 112 122 130 134 125 103 106 121 126 131 133 124 112 110 116 112 102 98 95 87 77 69 53 35 55 67
200 255 245 275 251 217 223 239 253 252 272 290 28 122 141 139 131 127 133 128 115 104 104 97 97 112 124 135 137 128 121 118 121 115 91 31 244 157 143 116 110 40 336 317
249 197 270 246 242 239 220 221 239 220 248 123 122 163 156 145 159 158 146 131 118 106 86 77 70 85 116 132 153 131 128 127 185 170 127 212 208 188 154 146 119 104 284 277
225 156 234 285 326 232 256 267 235 269 255 263 102 149 152 168 160 153 142 135 120 99 96 94 99 107 111 136 145 104 113 120 108 124 214 229 200 211 230 114 88 117 260 282
226 229 296 246 199 205 216 257 223 243 242 111 129 134 144 167 167 155 143 130 121 124 123 124 124 120 117 112 98 100 97 86 90 103 114 200 128 84 320 303 337 345 323 328
167 254 255 275 167 139 189 258 232 226 238 160 154 190 164 169 160 139 136 128 129 127 124 132 135 134 127 124 120 120 110 110 109 120 138 133 123 123 216 291 324 318 311 313
262 260 263 350 321 233 223 277 332 255 258 161 176 9 127 139 127 132 132 134 135 139 148 152 150 147 140 138 134 130 119 115 118 120 126 114 109 105 88 15 307 325 300 282
191 237 269 26 172 231 346 323 310 312 155 143 121 126 132 133 134 136 139 145 150 148 142 142 146 140 131 128 131 115 105 95 95 95 88 71 63 58 343 311 316 304 285 279
235 286 358 288 272 296 292 287 320 350 126 149 132 140 143 145 150 149 147 147 140 130 125 124 124 127 118 116 114 106 98 88 67 45 29 17 8 17 343 343 322 313 306 302
283 152 286 282 271 263 289 296 332 13 130 143 135 148 149 140 147 142 144 140 142 135 121 108 106 105 110 122 120 110 102 92 73 44 15 8 358 349 346 340 322 304 307 308
292 298 314 245 276 305 314 344 20 70 110 122 130 144 144 144 146 139 135 140 135 127 119 115 115 109 113 114 103 98 96 94 89 91 104 57 350 349 343 329 311 309 313 314
293 316 284 294 328 332 283 284 57 102 104 97 126 134 136 128 125 131 137 134 123 121 121 119 117 112 103 99 105 107 98 85 72 77 71 35 357 343 325 344 330 317 315 302
288 315 291 284 290 304 268 189 120 118 126 119 114 128 131 128 125 125 124 120 121 118 112 117 116 113 113 116 123 119 111 108 97 78 59 9 316 318 327 323 316 322 309 300
2 330 282 256 331 322 235 134 112 105 107 116 122 124 125 120 121 118 116 120 124 126 132 128 124 125 125 126 129 143 154 142 117 358 328 318 314 313 306 315 320 314 306 303
349 333 285 290 279 195 159 147 137 120 126 121 125 125 127 125 122 122 121 118 119 129 140 145 150 152 148 150 165 180 196 219 255 282 287 293 297 305 308 309 308 309 313 309
321 324 336 317 297 215 176 166 150 142 135 133 129 128 124 122 124 127 129 132 131 138 160 179 203 194 196 209 223 239 244 257 258 277 294 297 296 293 295 296 289 281 289 296
321 332 341 332 292 213 237 219 161 155 140 138 127 126 126 126 130 137 141 140 112 125 178 261 290 274 274 276 275 278 280 278 272 277 287 295 291 291 288 287 293 298 298 305
311 296 297 278 259 208 158 22 72 137 137 132 132 135 139 148 151 153 164 162 100 338 319 300 308 303 294 287 284 284 278 278 277 280 293 300 298 300 295 295 299 303 314 319
346 336 348 355 169 137 126 107 104 94 108 124 127 130 141 142 149 154 149 111 335 329 354 349 332 319 312 316 311 292 285 283 285 285 288 295 301 300 304 312 316 319 324 326
15 23 47 70 89 125 135 112 125 125 145 142 132 124 121 158 167 118 359 305 294 291 304 306 313 313 323 325 322 308 298 291 288 282 281 293 300 303 313 321 322 324 324 329
17 35 44 67 76 119 146 136 151 146 137 141 151 154 164 160 147 173 247 278 308 303 289 292 306 322 325 324 321 312 307 301 297 283 274 297 299 303 318 322 321 320 324 331
15 58 63 56 58 50 115 125 145 140 145 154 159 146 148 160 182 221 242 252 277 289 291 286 308 321 321 319 319 313 307 299 295 290 277 280 288 297 319 314 313 314 325 328
59 49 38 19 14 261 121 133 151 156 149 145 149 165 183 192 200 220 260 268 262 271 269 285 321 329 325 318 316 314 308 304 299 293 278 294 302 306 297 302 309 316 316 321
127 75 31 329 357 197 126 125 153 140 145 146 148 156 177 215 237 247 262 274 314 278 255 296 328 334 330 322 329 338 337 324 318 308 305 312 300 291 273 288 307 309 305 315
117 101 346 342 321 15 112 130 133 131 131 130 149 271 281 253 253 297 304 308 319 281 272 289 310 328 332 324 339 335 329 324 315 302 310 311 303 275 281 303 303 301 300 303
137 115 315 330 305 179 162 139 146 139 144 189 235 311 13 333 293 286 279 304 292 283 289 283 285 296 313 314 306 308 322 317 320 312 302 283 269 286 299 286 291 296 288 288
124 182 259 285 254 223 182 176 191 198 208 242 283 296 320 317 306 304 292 284 289 298 290 288 282 284 291 303 310 317 308 306 308 315 308 283 261 269 276 283 288 299 305 290